Location: Paddlesworth
(51.1000°N, 1.1333°E)
Time: 20:32:42
(UTC+00:00)

Cosmos 1666 - Pass Details

Date: 11 May 2021
Orbit: 495 x 519 km, 82.5° (Epoch: 20 June)

Event Time Altitude Azimuth Distance (km) Brightness Sun altitude
Rises 20:52:06 0° 353° (N) 2,606 7.2 -10.4°
Reaches altitude 10° 20:54:17 10° 359° (N) 1,714 6.1 -10.6°
Maximum altitude 20:57:56 51° 76° (ENE) 636 2.9 -11.0°
Enters shadow 21:00:36 17° 148° (SSE) 1,315 4.1 -11.3°
